Location: Chemnitz
(49.5500°N, 11.5830°E)
Time: 07:25:34
(UTC+02:00)

ISS - Visible Passes

Search period start: 29 March 2017 00:00
Search period end: 08 April 2017 00:00
Orbit: 399 x 409 km, 51.6° (Epoch: 29 March)

Date Brightness Start Highest point End Pass type
(mag) Time Alt. Az. Time Alt. Az. Time Alt. Az.
29 Mar -3.5 21:42:23 10° WSW 21:45:05 55° SW 21:45:05 55° SW visible
30 Mar -3.5 20:50:10 10° SW 20:53:18 46° SSE 20:55:19 19° E visible
30 Mar -1.7 22:26:29 10° W 22:28:00 24° W 22:28:00 24° W visible
31 Mar -3.8 21:34:03 10° WSW 21:37:19 78° NNW 21:38:03 50° ENE visible
01 Apr -3.9 20:41:38 10° WSW 20:44:54 78° SSE 20:47:57 12° ENE visible
01 Apr -2.5 22:18:15 10° W 22:20:37 40° WNW 22:20:37 40° WNW visible
02 Apr -3.4 21:25:46 10° W 21:29:00 61° N 21:30:25 30° ENE visible
02 Apr -0.8 23:02:24 10° WNW 23:03:04 15° WNW 23:03:04 15° WNW visible
03 Apr -3.6 20:33:15 10° W 20:36:31 72° NNW 20:39:48 10° ENE visible
03 Apr -3.1 22:09:56 10° WNW 22:12:46 54° NNW 22:12:46 54° NNW visible
04 Apr -3.4 21:17:27 10° W 21:20:40 57° N 21:22:25 24° ENE visible
04 Apr -1.2 22:53:59 10° WNW 22:55:04 19° WNW 22:55:04 19° WNW visible
05 Apr -3.4 20:24:55 10° W 20:28:09 59° N 20:31:24 10° ENE visible
05 Apr -3.8 22:01:31 10° WNW 22:04:40 75° NNW 22:04:40 75° NNW visible
06 Apr -3.6 21:09:02 10° WNW 21:12:17 63° N 21:14:15 22° E visible
06 Apr -1.5 22:45:33 10° WNW 22:46:54 21° W 22:46:54 21° W visible
07 Apr -3.9 21:53:03 10° WNW 21:56:18 71° SSW 21:56:28 69° S visible
